Weather in Voskresenskoye

Russia / Yaroslavl Oblast     58°30′12″N   40°31′53″E
temp.,
°C
wind,
m/s
gust,
m/s
humid.,
%
clouds,
%
prec.,
mm/h
press.,
hPa
HPBL,
m
13 june, sun
sun1300:00+16se298397 0.0 1007321
03:00+13ese269821 0.0 1007140
06:00+15se369072 0.0 1007272
09:00+20sse357198 0.0 1007922
12:00+21s357436 1.3 10061197
15:00+21ssw247834 3.4 1007981
18:00+21ssw23835 1.3 1006479
21:00+16sw11925 1.6 100711
14 june, mon
mon1400:00+14wsw1195100 0.0 100811
03:00+13w119547 0.0 100910
06:00+16sw139328 0.0 1011110
09:00+21sw24778 0.5 1012354
12:00+24w345269 0.9 10121363
15:00+26sw3540100 0.9 10122604
18:00+22ssw3668100 0.0 1013330
21:00+17w22885 0.5 101318
15 june, tue
tue1500:00+15wnw11957 1.3 101411
03:00+14n11975 1.3 101411
06:00+16nne119516 0.0 1014104
09:00+18sw118787 0.0 1013233
12:00+24sw246027 0.2 10121513
15:00+26wsw354928 0.6 10102031
18:00+22wsw247510 0.8 1009216
21:00+17w129227 1.5 100912
16 june, wed
wed1600:00+17w2289100 0.0 100927
03:00+16w2590100 0.0 100896
06:00+15nw2787100 0.0 1009210
09:00+19nnw5661100 0.0 1010876
12:00+19nw47520 0.0 10111205
15:00+19nw3754100 0.0 1012986
18:00+20nnw484016 0.0 10131528
21:00+13nw38635 0.0 1015163
17 june, thu
thu1700:00+10nw28710 0.0 1017146
03:00+9nw29730 0.0 1019172
06:00+13nw37670 0.0 1021215
09:00+18nw45450 0.0 1022983
12:00+21nw46345 0.0 10222082
15:00+21nnw47351 0.0 10232040
18:00+20nnw36450 0.0 10241572
21:00+14nw22673 0.0 102513